User: anonymous   Login
Location: Unspecified
(0.0000°N, 0.0000°E)
Time: 16:53:41
(UTC+01:00)
Language:

Atlas Centaur 2 - Orbit

View from above orbital plane
View from above orbital plane
View from above satellite
View from above satellite

Ground track
Ground track

The orbit data is extracted from the following two-line orbital elements,

1   694U 63047A   18050.85271233 +.00000219 +00000-0 +17144-4 0  9997
2   694 030.3552 242.1094 0587209 020.4430 341.8676 14.02256964717509
Epoch (UTC): 19 February 2018 20:27:54
Eccentricity: 0.0587209
inclination: 30.3552°
perigee height: 459 km
apogee height: 1312 km
right ascension of ascending node: 242.1094°
argument of perigee: 20.4430°
revolutions per day: 14.02256964
mean anomaly at epoch: 341.8676°
orbit number at epoch: 71750

The dashed part of the orbit path shows where the satellite is in the earth's shadow,  

DLR